CZ-4C DEB, 44617

Orbit data source: Space-Track

CZ-4C DEB, 44617 is space debris in LEO originally from a launch on Tue, 10 Apr 2018 UTC launched from the Taiyaun Space Center, China (TSC). Debris objects in space refer to the collection of defunct objects orbiting the Earth. Examples of debris include non-operational satellites, rocket bodies, and fragments generated from explosions, collisions, or faulty payload assembly.

Loading next visibility...
Identifier
44617, 2018-034J
Orbit
LEO
Country
Flag of CNCN / PRC
Related business
Manufacturer
Unknown
Mission
Spacecraft
Bus & Motor
Unknown
Mass
Unknown
Launch date (UTC)
2018-04-10 (8 years ago)
Launch vehicle
Unknown
Launch site
Taiyaun Space Center, China (TSC)
Object type
Payload
Rocket body
Debris
Shape & HBR
Unknown shape, 0.1 m
Radar Cross Section
Small (<0.1 m²)

Expand to show TLE details & history
Last TLE update: 2 days ago

TLE from 2 days ago
0 CZ-4C DEB
1 44617U 18034J   26171.19087465 -.00000068  00000-0  32469-4 0  9998
2 44617  63.3955 142.6901 0252544   7.3733 353.0894 13.41011933394647
Epoch: 2026-06-20T04:34Z
TLE epoch observation values (Epoch: 2026-06-20T04:34:51.569Z)
Latitude
-0.00012°
Longitude
165.56612°
Altitude
919.707 km
Speed
7.485 km/s
True Right ascension
09h 30m 45s
True Declination
0° 00' 00"
Sunlit
Object was in daylight at epoch
Visualization orbit readout
Latitude
Unknown
Longitude
Unknown
Altitude
Unknown
Speed
Unknown
Apparent Right ascension
Unknown
Apparent Declination
Unknown
Sunlit
N/A
Visualization observer readout
Local Sidereal Time
21:40:27
Azimuth
Unknown
Elevation
Unknown
Doppler factor
Unknown
Orbital elements
Apogee altitude
1,293.309 km
Perigee altitude
915.378 km
Semi-major axis
7,482.481 km
Eccentricity
0.02525
Inclination
63.3955°
RAAN
142.6901°
Arg. of periapsis
7.3733°
True anomaly
352.72995°
Mean anomaly
353.0894°
Eccentric anomaly
352.91082°
Mean motion
3.35332 °/min
Orbital period
107.36 mins
BSTAR
0.000032469
Loading maneuver chart data...
Computing Atmospheric mass density...
Loading historical data...
Loading historical data...
Loading historical data...
Loading historical data...
Loading historical data...
Loading historical data...
Loading historical data...

Documentation

Showing up to 5 results
|